Content
SEND FEEDBACK

Daily
Averages
Monthly
Summary
United States of America

SAN RAFAEL, CALIFORNIA


Home > North America > United States > California
Elevation: 30 feet     Latitude: 37 58N     Longitude: 122 32W

WEATHER
 
SELECT A DAY
Number of Records: 165,874;   Date Range: 9/27/07 - 8/22/14
 
SHARE

PRINT THIS DATA

[ ← Previous Day ]
WEATHER ALMANAC - OCTOBER 29, 2013
[ Next Day → ]
[ °C ]   °F
Weather ElementAverageHighLow
Temperature51.5 °F62.6 °F (2:35 pm)39.2 °F (5:15 am)
Dewpoint45.8 °F50 °F (9:35 am)39.2 °F (5:15 am)
Humidity83 %100 % (12:35 am)52 % (4:15 pm)
Barometer29.98 in30.07 in (10:35 pm)29.85 in (12:35 am)
Wind Speed2.5 mph8.1 mph (2:35 pm)
Weather ElementAverage
Visibility9.7 mi
Wind DirectionENE (81.2 °)

Weather ElementTotal
Precipitation---
Heating Degree Days14.1 (Base 65)
Growing Degree Days0.9 (Base 50)
Averaged from 68 records on October 29, 2013
WEATHER CONDITIONS BREAKOUT
WIND DIRECTION BREAKOUT
WEATHER BY HOUR - OCTOBER 29, 2013
[ °C ]   °F
Local TimeTemperatureDewpointHumidityBarometerVisibilityWind DirectionWind SpeedGust SpeedPrecipitationEventsConditions
12:35 AM46.4 °F46.4 °F100 %29.85 in10.0 miCalmClear
12:55 AM46.4 °F46.4 °F100 %29.86 in10.0 miNW (320°)3.5 mphClear
1:15 AM46.4 °F46.4 °F100 %29.86 in10.0 miCalmClear
1:35 AM46.4 °F46.4 °F100 %29.87 in10.0 miCalmClear
1:55 AM46.4 °F46.4 °F100 %29.87 in10.0 miCalmClear
2:15 AM44.6 °F44.6 °F100 %29.88 in10.0 miNorth (350°)3.5 mphClear
2:35 AM44.6 °F44.6 °F100 %29.88 in10.0 miCalmClear
2:55 AM42.8 °F42.8 °F100 %29.89 in10.0 miCalmScattered Clouds
3:15 AM42.8 °F42.8 °F100 %29.89 in8.0 miCalmScattered Clouds
3:35 AM42.8 °F42.8 °F100 %29.90 in10.0 miCalmPartly Cloudy
4:15 AM44.6 °F44.6 °F100 %29.90 in10.0 miCalmPartly Cloudy
4:35 AM42.8 °F42.8 °F100 %29.91 in10.0 miSouth (190°)3.5 mphPartly Cloudy
5:15 AM39.2 °F39.2 °F100 %29.92 in1.0 miCalmOvercast
5:35 AM39.2 °F39.2 °F100 %29.93 in0.5 miCalmFogFog
6:15 AM44.6 °F44.6 °F100 %29.93 in10.0 miCalmOvercast
6:35 AM46.4 °F46.4 °F100 %29.94 in10.0 miCalmOvercast
6:55 AM46.4 °F46.4 °F100 %29.94 in10.0 miCalmOvercast
7:15 AM46.4 °F46.4 °F100 %29.95 in10.0 miCalmOvercast
7:35 AM48.2 °F48.2 °F100 %29.95 in10.0 miSSW (200°)3.5 mphOvercast
7:55 AM48.2 °F48.2 °F100 %29.95 in10.0 miSouth (180°)3.5 mphOvercast
8:15 AM48.2 °F48.2 °F100 %29.96 in10.0 miCalmOvercast
8:35 AM50.0 °F48.2 °F94 %29.97 in10.0 miSouth (190°)3.5 mphOvercast
8:55 AM50.0 °F48.2 °F94 %29.97 in10.0 miCalmOvercast
9:15 AM50.0 °F48.2 °F94 %29.98 in10.0 miCalmOvercast
9:35 AM51.8 °F50.0 °F94 %29.98 in10.0 miNorth (10°)3.5 mphOvercast
9:55 AM53.6 °F48.2 °F82 %29.98 in10.0 miNE (40°)3.5 mphOvercast
10:15 AM53.6 °F48.2 °F82 %29.99 in10.0 miNE (40°)3.5 mphOvercast
10:35 AM55.4 °F48.2 °F77 %29.99 in10.0 miCalmOvercast
10:55 AM55.4 °F48.2 °F77 %30.00 in10.0 miCalmOvercast
11:15 AM55.4 °F48.2 °F77 %30.00 in10.0 miSSE (150°)3.5 mphMostly Cloudy
11:35 AM57.2 °F46.4 °F67 %30.00 in10.0 miCalmScattered Clouds
11:55 AM57.2 °F46.4 °F67 %30.00 in10.0 miSouth (180°)3.5 mphPartly Cloudy
12:15 PM59.0 °F46.4 °F63 %29.99 in10.0 miSouth (170°)4.6 mphClear
12:35 PM59.0 °F46.4 °F63 %29.99 in10.0 miSE (130°)6.9 mphClear
12:55 PM59.0 °F46.4 °F63 %29.99 in10.0 miSE (130°)6.9 mphMostly Cloudy
1:15 PM59.0 °F46.4 °F63 %29.99 in10.0 miESE (120°)5.8 mphOvercast
1:35 PM59.0 °F46.4 °F63 %29.98 in10.0 miEast (80°)4.6 mphMostly Cloudy
1:55 PM59.0 °F46.4 °F63 %29.98 in10.0 miSE (130°)3.5 mphMostly Cloudy
2:15 PM60.8 °F46.4 °F59 %29.98 in10.0 miSE (130°)4.6 mphScattered Clouds
2:35 PM62.6 °F46.4 °F55 %29.98 in10.0 miSE (130°)8.1 mphPartly Cloudy
2:55 PM62.6 °F46.4 °F55 %29.98 in10.0 miSE (130°)8.1 mphClear
3:15 PM62.6 °F46.4 °F55 %29.98 in10.0 miSouth (170°)8.1 mphClear
3:35 PM62.6 °F46.4 °F55 %29.98 in10.0 miSW (230°)5.8 mphClear
3:55 PM62.6 °F46.4 °F55 %29.98 in10.0 miSSE (160°)5.8 mphClear
4:15 PM62.6 °F44.6 °F52 %29.98 in10.0 miSouth (180°)5.8 mphClear
4:35 PM62.6 °F44.6 °F52 %29.99 in10.0 miSouth (170°)6.9 mphClear
4:55 PM62.6 °F46.4 °F55 %29.99 in10.0 miSE (140°)6.9 mphClear
5:15 PM62.6 °F46.4 °F55 %29.99 in10.0 miSE (140°)5.8 mphClear
5:35 PM62.6 °F44.6 °F52 %29.99 in10.0 miSouth (170°)5.8 mphClear
5:55 PM59.0 °F46.4 °F63 %30.00 in10.0 miSSW (210°)4.6 mphClear
6:15 PM57.2 °F46.4 °F67 %30.00 inWSW (240°)5.8 mphClear
6:35 PM57.2 °F46.4 °F67 %30.01 inCalmClear
6:55 PM55.4 °F46.4 °F72 %30.02 in10.0 miCalmClear
7:15 PM50.0 °F46.4 °F87 %30.02 in10.0 miNNE (20°)4.6 mphClear
7:35 PM50.0 °F46.4 °F87 %30.03 in10.0 miCalmClear
7:55 PM48.2 °F44.6 °F87 %30.04 in10.0 miCalmClear
8:15 PM50.0 °F44.6 °F82 %30.04 in10.0 miCalmClear
8:35 PM48.2 °F44.6 °F87 %30.04 in10.0 miCalmClear
8:55 PM44.6 °F41.0 °F87 %30.04 in10.0 miNorth (360°)4.6 mphClear
9:15 PM46.4 °F46.4 °F100 %30.05 in10.0 miNNW (330°)8.1 mphClear
9:35 PM48.2 °F46.4 °F93 %30.05 in10.0 miCalmClear
9:55 PM48.2 °F46.4 °F93 %30.06 in10.0 miCalmClear
10:15 PM44.6 °F44.6 °F100 %30.06 in10.0 miCalmClear
10:35 PM46.4 °F44.6 °F93 %30.07 in10.0 miCalmClear
10:55 PM44.6 °F44.6 °F100 %30.07 in10.0 miCalmClear
11:15 PM44.6 °F42.8 °F93 %30.07 in10.0 miCalmClear
11:35 PM42.8 °F42.8 °F100 %30.07 in10.0 miCalmClear
11:55 PM44.6 °F44.6 °F100 %30.07 in10.0 miCalmClear
Hourly data recorded from KDVO, located miles away from San Rafael, California







STORIES FROM OUR PARTNERS